CASSIOPE

Last updated on Thu Oct 30 2025 00:03:36 GMT+0000 (Coordinated Universal Time)

1 39265U 13055A 25302.47958652 .00037132 -67817-6 51955-3 0 9997 2 39265 80.9418 343.2894 0357206 110.8714 253.1142 15.07220677632696
UTC large
Height (km)
Speed (km/s)
/
Latitude / Longitude
Inclination (degrees)
Orbital Period (minutes)
Azimuth
Elevation
Range (km)
Doppler Factor

Next 0 passes for location: London (51.5072 / 0.1276)

Sorry there are no passes over London.